Time,TemperatureF,DewpointF,PressureIn,WindDirection,WindDirectionDegrees,WindSpeedMPH,WindSpeedGustMPH,Humidity,HourlyPrecipIn,Conditions,Clouds,dailyrainin,SoftwareType,DateUTC
2013-10-17 00:00:00,42.1,37.0,29.76,WNW,284,0.0,1.0,82,0.00,,SKC,0.00,VWS V14.01,2013-10-17 05:00:00,
2013-10-17 00:05:00,42.2,37.4,29.75,WNW,284,0.0,0.0,83,0.00,,SKC,0.00,VWS V14.01,2013-10-17 05:05:00,
2013-10-17 00:10:00,42.2,37.4,29.75,WNW,284,0.0,0.0,83,0.00,,SKC,0.00,VWS V14.01,2013-10-17 05:10:00,
2013-10-17 00:15:00,42.2,37.4,29.75,WNW,284,0.0,0.0,83,0.00,,SKC,0.00,VWS V14.01,2013-10-17 05:15:00,
2013-10-17 00:20:00,42.1,37.3,29.75,WNW,284,0.0,0.0,83,0.00,,SKC,0.00,VWS V14.01,2013-10-17 05:20:00,
2013-10-17 00:25:00,42.0,37.2,29.75,WNW,284,1.0,1.0,83,0.00,,SKC,0.00,VWS V14.01,2013-10-17 05:25:00,
2013-10-17 00:30:00,42.0,37.5,29.75,WNW,284,0.0,1.0,84,0.00,,SKC,0.00,VWS V14.01,2013-10-17 05:30:00,
2013-10-17 00:35:00,42.0,37.5,29.75,WNW,284,0.0,0.0,84,0.00,,SKC,0.00,VWS V14.01,2013-10-17 05:35:00,
2013-10-17 00:40:00,41.9,37.4,29.75,WNW,284,0.0,0.0,84,0.00,,SKC,0.00,VWS V14.01,2013-10-17 05:40:00,
2013-10-17 00:45:00,41.9,37.4,29.75,WNW,284,0.0,0.0,84,0.00,,SKC,0.00,VWS V14.01,2013-10-17 05:45:00,
2013-10-17 00:50:00,41.9,37.4,29.75,WNW,284,0.0,0.0,84,0.00,,SKC,0.00,VWS V14.01,2013-10-17 05:50:00,
2013-10-17 00:55:00,41.9,37.7,29.74,WNW,284,0.0,0.0,85,0.00,,SKC,0.00,VWS V14.01,2013-10-17 05:55:00,
2013-10-17 01:00:00,41.8,37.6,29.74,WNW,284,0.0,0.0,85,0.00,,SKC,0.00,VWS V14.01,2013-10-17 06:00:00,
2013-10-17 01:05:00,41.8,37.6,29.74,WNW,284,0.0,0.0,85,0.00,,SKC,0.00,VWS V14.01,2013-10-17 06:05:00,
2013-10-17 01:11:00,41.8,37.9,29.74,WNW,284,0.0,0.0,86,0.00,,SKC,0.00,VWS V14.01,2013-10-17 06:11:00,
2013-10-17 01:16:00,41.7,37.8,29.74,WNW,284,0.0,0.0,86,0.00,,SKC,0.00,VWS V14.01,2013-10-17 06:16:00,
2013-10-17 01:21:00,41.6,37.7,29.74,WNW,284,0.0,0.0,86,0.00,,SKC,0.00,VWS V14.01,2013-10-17 06:21:00,
2013-10-17 01:26:00,41.5,37.6,29.74,WNW,284,0.0,0.0,86,0.00,,SKC,0.00,VWS V14.01,2013-10-17 06:26:00,
2013-10-17 01:30:00,42.0,37.5,29.75,WNW,284,0.0,1.0,84,0.00,,SKC,0.00,VWS V14.01,2013-10-17 06:30:00,
2013-10-17 01:31:00,41.3,37.4,29.74,WNW,284,0.0,0.0,86,0.00,,SKC,0.00,VWS V14.01,2013-10-17 06:31:00,
2013-10-17 01:36:00,41.2,37.3,29.74,WNW,284,0.0,0.0,86,0.00,,SKC,0.00,VWS V14.01,2013-10-17 06:36:00,
2013-10-17 01:41:00,41.1,37.5,29.74,WNW,284,0.0,0.0,87,0.00,,SKC,0.00,VWS V14.01,2013-10-17 06:41:00,
2013-10-17 01:46:00,41.1,37.5,29.74,WNW,284,0.0,0.0,87,0.00,,SKC,0.00,VWS V14.01,2013-10-17 06:46:00,
2013-10-17 01:51:00,41.1,37.5,29.74,WNW,284,0.0,0.0,87,0.00,,SKC,0.00,VWS V14.01,2013-10-17 06:51:00,
2013-10-17 01:56:00,41.0,37.4,29.74,WNW,284,0.0,0.0,87,0.00,,SKC,0.00,VWS V14.01,2013-10-17 06:56:00,
2013-10-17 02:00:00,41.8,37.6,29.74,WNW,284,0.0,0.0,85,0.00,,SKC,0.00,VWS V14.01,2013-10-17 07:00:00,
2013-10-17 02:01:00,41.0,37.7,29.74,WNW,284,0.0,1.0,88,0.00,,SKC,0.00,VWS V14.01,2013-10-17 07:01:00,
2013-10-17 02:06:00,40.9,37.6,29.74,WNW,284,0.0,0.0,88,0.00,,SKC,0.00,VWS V14.01,2013-10-17 07:06:00,
2013-10-17 02:11:00,40.9,37.9,29.74,WNW,284,0.0,0.0,89,0.00,,SKC,0.00,VWS V14.01,2013-10-17 07:11:00,
2013-10-17 02:16:00,40.8,37.8,29.74,WNW,284,0.0,0.0,89,0.00,,SKC,0.00,VWS V14.01,2013-10-17 07:16:00,
2013-10-17 02:21:00,40.7,37.7,29.74,WNW,284,0.0,0.0,89,0.00,,SKC,0.00,VWS V14.01,2013-10-17 07:21:00,
2013-10-17 02:26:00,40.6,37.6,29.74,WNW,284,0.0,0.0,89,0.00,,SKC,0.00,VWS V14.01,2013-10-17 07:26:00,
2013-10-17 02:30:00,41.3,37.4,29.74,WNW,284,0.0,0.0,86,0.00,,SKC,0.00,VWS V14.01,2013-10-17 07:30:00,
2013-10-17 02:31:00,40.5,37.5,29.74,WNW,284,0.0,0.0,89,0.00,,SKC,0.00,VWS V14.01,2013-10-17 07:31:00,
2013-10-17 02:36:00,40.4,37.4,29.74,WNW,284,0.0,0.0,89,0.00,,SKC,0.00,VWS V14.01,2013-10-17 07:36:00,
2013-10-17 02:41:00,40.3,37.6,29.74,WNW,284,0.0,0.0,90,0.00,,SKC,0.00,VWS V14.01,2013-10-17 07:41:00,
2013-10-17 02:46:00,40.2,37.5,29.74,WNW,284,0.0,0.0,90,0.00,,SKC,0.00,VWS V14.01,2013-10-17 07:46:00,
2013-10-17 02:51:00,40.1,37.4,29.74,WNW,284,0.0,1.0,90,0.00,,SKC,0.00,VWS V14.01,2013-10-17 07:51:00,
2013-10-17 02:56:00,40.2,37.5,29.74,WNW,284,0.0,1.0,90,0.00,,SKC,0.00,VWS V14.01,2013-10-17 07:56:00,
2013-10-17 03:00:00,41.0,37.7,29.74,WNW,284,0.0,1.0,88,0.00,,SKC,0.00,VWS V14.01,2013-10-17 08:00:00,
2013-10-17 03:01:00,40.4,37.4,29.74,WNW,283,0.0,0.0,89,0.00,,SKC,0.00,VWS V14.01,2013-10-17 08:01:00,
2013-10-17 03:06:00,40.4,37.4,29.74,WNW,283,0.0,0.0,89,0.00,,SKC,0.00,VWS V14.01,2013-10-17 08:06:00,
2013-10-17 03:11:00,40.5,37.5,29.74,WNW,283,0.0,0.0,89,0.00,,SKC,0.00,VWS V14.01,2013-10-17 08:11:00,
2013-10-17 03:16:00,40.5,37.2,29.73,WNW,283,0.0,2.0,88,0.00,,SKC,0.00,VWS V14.01,2013-10-17 08:16:00,
2013-10-17 03:21:00,40.5,37.2,29.73,WNW,283,0.0,2.0,88,0.00,,SKC,0.00,VWS V14.01,2013-10-17 08:21:00,
2013-10-17 03:26:00,40.5,37.2,29.73,WNW,283,0.0,2.0,88,0.00,,SKC,0.00,VWS V14.01,2013-10-17 08:26:00,
2013-10-17 03:30:00,40.5,37.5,29.74,WNW,284,0.0,0.0,89,0.00,,SKC,0.00,VWS V14.01,2013-10-17 08:30:00,
2013-10-17 03:31:00,40.4,37.1,29.73,WNW,283,0.0,0.0,88,0.00,,SKC,0.00,VWS V14.01,2013-10-17 08:31:00,
2013-10-17 03:36:00,40.4,37.1,29.73,WNW,283,0.0,0.0,88,0.00,,SKC,0.00,VWS V14.01,2013-10-17 08:36:00,
2013-10-17 03:41:00,40.4,37.4,29.73,WNW,283,0.0,0.0,89,0.00,,SKC,0.00,VWS V14.01,2013-10-17 08:41:00,
2013-10-17 03:47:00,40.4,37.1,29.73,WNW,283,0.0,0.0,88,0.00,,SKC,0.00,VWS V14.01,2013-10-17 08:47:00,
2013-10-17 03:52:00,40.4,37.4,29.73,WNW,283,0.0,0.0,89,0.00,,SKC,0.00,VWS V14.01,2013-10-17 08:52:00,
2013-10-17 03:57:00,40.6,37.6,29.73,WNW,283,0.0,1.0,89,0.00,,SKC,0.00,VWS V14.01,2013-10-17 08:57:00,
2013-10-17 04:00:00,40.4,37.4,29.74,WNW,284,0.0,4.0,89,0.00,,SKC,0.00,VWS V14.01,2013-10-17 09:00:00,
2013-10-17 04:02:00,40.7,37.7,29.73,WNW,283,1.0,1.0,89,0.00,,SKC,0.00,VWS V14.01,2013-10-17 09:02:00,
2013-10-17 04:07:00,41.0,38.0,29.73,WNW,283,4.0,4.0,89,0.00,,SKC,0.00,VWS V14.01,2013-10-17 09:07:00,
2013-10-17 04:12:00,41.3,38.0,29.73,West,277,0.0,7.0,88,0.00,,SKC,0.00,VWS V14.01,2013-10-17 09:12:00,
2013-10-17 04:17:00,41.7,38.1,29.72,WSW,243,0.0,8.0,87,0.00,,SKC,0.00,VWS V14.01,2013-10-17 09:17:00,
2013-10-17 04:22:00,41.8,38.2,29.72,WSW,242,0.0,8.0,87,0.00,,SKC,0.00,VWS V14.01,2013-10-17 09:22:00,
2013-10-17 04:27:00,41.9,38.0,29.72,WSW,241,0.0,8.0,86,0.00,,SKC,0.00,VWS V14.01,2013-10-17 09:27:00,
2013-10-17 04:30:00,40.4,37.1,29.73,WNW,283,0.0,2.0,88,0.00,,SKC,0.00,VWS V14.01,2013-10-17 09:30:00,
2013-10-17 04:32:00,41.9,38.3,29.72,WSW,241,0.0,0.0,87,0.00,,SKC,0.00,VWS V14.01,2013-10-17 09:32:00,
2013-10-17 04:37:00,41.8,38.2,29.72,WSW,241,0.0,0.0,87,0.00,,SKC,0.00,VWS V14.01,2013-10-17 09:37:00,
2013-10-17 04:42:00,41.8,38.2,29.72,WSW,241,0.0,5.0,87,0.00,,SKC,0.00,VWS V14.01,2013-10-17 09:42:00,
2013-10-17 04:47:00,41.8,38.2,29.72,WSW,241,0.0,5.0,87,0.00,,SKC,0.00,VWS V14.01,2013-10-17 09:47:00,
2013-10-17 04:52:00,41.7,38.1,29.72,WSW,238,5.0,5.0,87,0.00,,SKC,0.00,VWS V14.01,2013-10-17 09:52:00,
2013-10-17 04:57:00,41.7,38.1,29.72,WSW,238,0.0,5.0,87,0.00,,SKC,0.00,VWS V14.01,2013-10-17 09:57:00,
2013-10-17 05:00:00,40.7,37.7,29.72,WNW,283,0.0,1.0,89,0.00,,SKC,0.00,VWS V14.01,2013-10-17 10:00:00,
2013-10-17 05:02:00,41.7,38.1,29.72,WSW,238,0.0,0.0,87,0.00,,SKC,0.00,VWS V14.01,2013-10-17 10:02:00,
2013-10-17 05:07:00,41.7,38.4,29.72,WSW,238,0.0,0.0,88,0.00,,SKC,0.00,VWS V14.01,2013-10-17 10:07:00,
2013-10-17 05:12:00,41.8,38.5,29.72,WSW,238,0.0,0.0,88,0.00,,SKC,0.00,VWS V14.01,2013-10-17 10:12:00,
2013-10-17 05:17:00,41.8,38.5,29.72,WSW,238,0.0,1.0,88,0.00,,SKC,0.00,VWS V14.01,2013-10-17 10:17:00,
2013-10-17 05:22:00,41.8,38.5,29.72,WSW,238,0.0,1.0,88,0.00,,SKC,0.00,VWS V14.01,2013-10-17 10:22:00,
2013-10-17 05:27:00,41.9,38.6,29.72,WSW,238,0.0,1.0,88,0.00,,SKC,0.00,VWS V14.01,2013-10-17 10:27:00,
2013-10-17 05:30:00,41.9,38.3,29.72,WSW,241,0.0,8.0,87,0.00,,SKC,0.00,VWS V14.01,2013-10-17 10:30:00,
2013-10-17 05:32:00,41.9,38.6,29.72,WSW,238,0.0,0.0,88,0.00,,SKC,0.00,VWS V14.01,2013-10-17 10:32:00,
2013-10-17 05:37:00,41.9,38.6,29.71,WSW,238,0.0,0.0,88,0.00,,SKC,0.00,VWS V14.01,2013-10-17 10:37:00,
2013-10-17 05:42:00,41.9,38.9,29.71,WSW,238,0.0,0.0,89,0.00,,SKC,0.00,VWS V14.01,2013-10-17 10:42:00,
2013-10-17 05:47:00,41.9,38.9,29.71,WSW,238,0.0,0.0,89,0.00,,SKC,0.00,VWS V14.01,2013-10-17 10:47:00,
2013-10-17 05:52:00,41.9,38.9,29.71,WSW,238,0.0,0.0,89,0.00,,SKC,0.00,VWS V14.01,2013-10-17 10:52:00,
2013-10-17 05:57:00,41.9,38.6,29.71,WSW,238,0.0,1.0,88,0.00,,SKC,0.00,VWS V14.01,2013-10-17 10:57:00,
2013-10-17 06:00:00,41.7,38.1,29.72,WSW,238,0.0,5.0,87,0.00,,SKC,0.00,VWS V14.01,2013-10-17 11:00:00,
2013-10-17 06:02:00,42.0,38.7,29.71,WSW,238,0.0,0.0,88,0.00,,SKC,0.00,VWS V14.01,2013-10-17 11:02:00,
2013-10-17 06:07:00,41.9,38.6,29.71,WSW,238,0.0,0.0,88,0.00,,SKC,0.00,VWS V14.01,2013-10-17 11:07:00,
2013-10-17 06:12:00,41.8,38.5,29.71,WSW,238,0.0,0.0,88,0.00,,SKC,0.00,VWS V14.01,2013-10-17 11:12:00,
2013-10-17 06:17:00,41.8,38.5,29.71,WSW,238,0.0,0.0,88,0.00,,SKC,0.00,VWS V14.01,2013-10-17 11:17:00,
2013-10-17 06:22:00,41.7,38.4,29.71,WSW,238,0.0,0.0,88,0.00,,SKC,0.00,VWS V14.01,2013-10-17 11:22:00,
2013-10-17 06:27:00,41.7,38.4,29.71,WSW,238,0.0,0.0,88,0.00,,SKC,0.00,VWS V14.01,2013-10-17 11:27:00,
2013-10-17 06:30:00,42.0,38.7,29.72,WSW,238,0.0,1.0,88,0.00,,SKC,0.00,VWS V14.01,2013-10-17 11:30:00,
2013-10-17 06:33:00,41.6,38.3,29.71,WSW,238,0.0,0.0,88,0.00,,SKC,0.00,VWS V14.01,2013-10-17 11:33:00,
2013-10-17 06:38:00,41.6,38.3,29.71,WSW,238,0.0,0.0,88,0.00,,SKC,0.00,VWS V14.01,2013-10-17 11:38:00,
2013-10-17 06:43:00,41.6,38.3,29.71,WSW,238,0.0,0.0,88,0.00,,SKC,0.00,VWS V14.01,2013-10-17 11:43:00,
2013-10-17 06:48:00,41.7,38.4,29.71,WSW,238,0.0,0.0,88,0.00,,SKC,0.00,VWS V14.01,2013-10-17 11:48:00,
2013-10-17 06:53:00,41.7,38.4,29.71,WSW,238,0.0,0.0,88,0.00,,SKC,0.00,VWS V14.01,2013-10-17 11:53:00,
2013-10-17 06:58:00,41.7,38.7,29.71,WSW,238,0.0,0.0,89,0.00,,SKC,0.00,VWS V14.01,2013-10-17 11:58:00,
2013-10-17 07:00:00,41.9,38.6,29.71,WSW,238,0.0,1.0,88,0.00,,SKC,0.00,VWS V14.01,2013-10-17 12:00:00,
2013-10-17 07:03:00,41.7,38.7,29.71,WSW,238,0.0,0.0,89,0.00,,SKC,0.00,VWS V14.01,2013-10-17 12:03:00,
2013-10-17 07:08:00,41.7,38.7,29.71,WSW,238,0.0,1.0,89,0.00,,SKC,0.00,VWS V14.01,2013-10-17 12:08:00,
2013-10-17 07:13:00,41.7,38.7,29.71,WSW,238,0.0,1.0,89,0.00,,SKC,0.00,VWS V14.01,2013-10-17 12:13:00,
2013-10-17 07:18:00,41.7,38.7,29.71,WSW,238,0.0,1.0,89,0.00,,SKC,0.00,VWS V14.01,2013-10-17 12:18:00,
2013-10-17 07:23:00,41.6,38.6,29.71,WSW,238,0.0,1.0,89,0.00,,SKC,0.00,VWS V14.01,2013-10-17 12:23:00,
2013-10-17 07:28:00,41.6,38.6,29.71,WSW,238,0.0,1.0,89,0.00,,SKC,0.00,VWS V14.01,2013-10-17 12:28:00,
2013-10-17 07:30:00,41.6,38.3,29.71,WSW,238,0.0,0.0,88,0.00,,SKC,0.00,VWS V14.01,2013-10-17 12:30:00,
2013-10-17 07:33:00,41.5,38.8,29.71,WSW,238,0.0,0.0,90,0.00,,SKC,0.00,VWS V14.01,2013-10-17 12:33:00,
2013-10-17 07:38:00,41.4,38.7,29.71,WSW,238,0.0,0.0,90,0.00,,SKC,0.00,VWS V14.01,2013-10-17 12:38:00,
2013-10-17 07:43:00,41.4,38.7,29.71,WSW,238,0.0,0.0,90,0.00,,SKC,0.00,VWS V14.01,2013-10-17 12:43:00,
2013-10-17 07:48:00,41.3,38.6,29.71,WSW,238,0.0,0.0,90,0.00,,SKC,0.00,VWS V14.01,2013-10-17 12:48:00,
2013-10-17 07:53:00,41.3,38.6,29.71,WSW,238,0.0,0.0,90,0.00,,SKC,0.00,VWS V14.01,2013-10-17 12:53:00,
2013-10-17 07:58:00,41.3,38.6,29.71,WSW,238,0.0,0.0,90,0.00,,SKC,0.00,VWS V14.01,2013-10-17 12:58:00,
2013-10-17 08:00:00,41.7,38.7,29.71,WSW,238,0.0,1.0,89,0.00,,SKC,0.00,VWS V14.01,2013-10-17 13:00:00,
2013-10-17 08:03:00,41.3,38.6,29.71,WSW,238,0.0,0.0,90,0.00,,SKC,0.00,VWS V14.01,2013-10-17 13:03:00,
2013-10-17 08:08:00,41.3,38.6,29.71,WSW,238,0.0,0.0,90,0.00,,SKC,0.00,VWS V14.01,2013-10-17 13:08:00,
2013-10-17 08:13:00,41.3,38.6,29.71,WSW,238,0.0,0.0,90,0.00,,SKC,0.00,VWS V14.01,2013-10-17 13:13:00,
2013-10-17 08:18:00,41.3,38.6,29.71,WSW,238,0.0,0.0,90,0.00,,SKC,0.00,VWS V14.01,2013-10-17 13:18:00,
2013-10-17 08:23:00,41.3,38.6,29.71,WSW,238,0.0,0.0,90,0.00,,SKC,0.00,VWS V14.01,2013-10-17 13:23:00,
2013-10-17 08:28:00,41.3,38.6,29.71,WSW,238,0.0,0.0,90,0.00,,SKC,0.00,VWS V14.01,2013-10-17 13:28:00,
2013-10-17 08:30:00,41.5,38.8,29.71,WSW,238,0.0,1.0,90,0.00,,SKC,0.00,VWS V14.01,2013-10-17 13:30:00,
2013-10-17 08:33:00,41.3,38.6,29.71,WSW,238,0.0,0.0,90,0.00,,SKC,0.00,VWS V14.01,2013-10-17 13:33:00,
2013-10-17 08:38:00,41.3,38.6,29.71,WSW,238,0.0,0.0,90,0.00,,SKC,0.00,VWS V14.01,2013-10-17 13:38:00,
2013-10-17 08:43:00,41.4,39.0,29.71,WSW,238,0.0,0.0,91,0.00,,SKC,0.00,VWS V14.01,2013-10-17 13:43:00,
2013-10-17 08:48:00,41.5,38.8,29.71,WSW,238,0.0,0.0,90,0.00,,SKC,0.00,VWS V14.01,2013-10-17 13:48:00,
2013-10-17 08:53:00,41.5,38.8,29.71,WSW,238,0.0,1.0,90,0.00,,SKC,0.00,VWS V14.01,2013-10-17 13:53:00,
2013-10-17 08:59:00,41.6,38.9,29.71,WSW,238,0.0,1.0,90,0.00,,SKC,0.00,VWS V14.01,2013-10-17 13:59:00,
2013-10-17 09:00:00,41.3,38.6,29.71,WSW,238,0.0,0.0,90,0.00,,SKC,0.00,VWS V14.01,2013-10-17 14:00:00,
2013-10-17 09:04:00,41.7,39.0,29.71,WSW,238,0.0,0.0,90,0.00,,SKC,0.00,VWS V14.01,2013-10-17 14:04:00,
2013-10-17 09:09:00,41.8,39.1,29.71,WSW,238,0.0,0.0,90,0.00,,SKC,0.00,VWS V14.01,2013-10-17 14:09:00,
2013-10-17 09:14:00,41.8,38.8,29.71,WSW,238,0.0,1.0,89,0.00,,SKC,0.00,VWS V14.01,2013-10-17 14:14:00,
2013-10-17 09:19:00,41.9,38.9,29.71,WSW,238,0.0,1.0,89,0.00,,SKC,0.00,VWS V14.01,2013-10-17 14:19:00,
2013-10-17 09:24:00,42.0,39.0,29.71,WSW,238,0.0,1.0,89,0.00,,SKC,0.00,VWS V14.01,2013-10-17 14:24:00,
2013-10-17 09:29:00,42.2,39.2,29.71,WSW,238,0.0,1.0,89,0.00,,SKC,0.00,VWS V14.01,2013-10-17 14:29:00,
2013-10-17 09:30:00,41.3,38.6,29.71,WSW,238,0.0,0.0,90,0.00,,SKC,0.00,VWS V14.01,2013-10-17 14:30:00,
2013-10-17 09:34:00,42.4,39.4,29.71,WSW,238,0.0,0.0,89,0.00,,SKC,0.00,VWS V14.01,2013-10-17 14:34:00,
2013-10-17 09:39:00,42.4,39.4,29.71,WSW,238,0.0,1.0,89,0.00,,SKC,0.00,VWS V14.01,2013-10-17 14:39:00,
2013-10-17 09:44:00,42.5,39.5,29.71,WSW,238,0.0,4.0,89,0.00,,SKC,0.00,VWS V14.01,2013-10-17 14:44:00,
2013-10-17 09:49:00,42.7,39.4,29.71,WSW,238,0.0,4.0,88,0.00,,SKC,0.00,VWS V14.01,2013-10-17 14:49:00,
2013-10-17 09:54:00,42.9,39.6,29.71,WSW,238,0.0,4.0,88,0.00,,SKC,0.00,VWS V14.01,2013-10-17 14:54:00,
2013-10-17 09:59:00,43.1,40.1,29.71,WSW,238,0.0,5.0,89,0.00,,SKC,0.00,VWS V14.01,2013-10-17 14:59:00,
2013-10-17 10:00:00,41.6,38.9,29.71,WSW,238,0.0,1.0,90,0.00,,SKC,0.00,VWS V14.01,2013-10-17 15:00:00,
2013-10-17 10:04:00,43.4,40.4,29.71,WSW,238,0.0,0.0,89,0.00,,SKC,0.00,VWS V14.01,2013-10-17 15:04:00,
2013-10-17 10:09:00,43.6,40.3,29.71,WSW,238,0.0,2.0,88,0.00,,SKC,0.00,VWS V14.01,2013-10-17 15:09:00,
2013-10-17 10:14:00,43.8,40.2,29.71,WSW,238,0.0,2.0,87,0.00,,SKC,0.00,VWS V14.01,2013-10-17 15:14:00,
2013-10-17 10:19:00,44.0,40.4,29.71,WSW,238,0.0,4.0,87,0.00,,SKC,0.00,VWS V14.01,2013-10-17 15:19:00,
2013-10-17 10:24:00,44.2,40.6,29.70,WSW,238,0.0,4.0,87,0.00,,SKC,0.00,VWS V14.01,2013-10-17 15:24:00,
2013-10-17 10:29:00,44.4,40.8,29.70,WSW,238,0.0,5.0,87,0.00,,SKC,0.00,VWS V14.01,2013-10-17 15:29:00,
2013-10-17 10:30:00,42.3,39.3,29.71,WSW,238,0.0,1.0,89,0.00,,SKC,0.00,VWS V14.01,2013-10-17 15:30:00,
2013-10-17 10:34:00,44.7,40.8,29.70,WSW,238,0.0,1.0,86,0.00,,SKC,0.00,VWS V14.01,2013-10-17 15:34:00,
2013-10-17 10:39:00,45.0,41.4,29.71,WSW,238,1.0,1.0,87,0.00,,SKC,0.00,VWS V14.01,2013-10-17 15:39:00,
2013-10-17 10:44:00,45.1,41.2,29.70,WSW,238,0.0,1.0,86,0.00,,SKC,0.00,VWS V14.01,2013-10-17 15:44:00,
2013-10-17 10:49:00,45.3,41.4,29.70,WSW,238,0.0,1.0,86,0.00,,SKC,0.00,VWS V14.01,2013-10-17 15:49:00,
2013-10-17 10:54:00,45.5,41.3,29.70,WSW,238,0.0,1.0,85,0.00,,SKC,0.00,VWS V14.01,2013-10-17 15:54:00,
2013-10-17 10:59:00,45.8,41.5,29.70,WSW,238,0.0,1.0,85,0.00,,SKC,0.00,VWS V14.01,2013-10-17 15:59:00,
2013-10-17 11:00:00,43.2,40.2,29.71,WSW,238,0.0,5.0,89,0.00,,SKC,0.00,VWS V14.01,2013-10-17 16:00:00,
2013-10-17 11:04:00,45.9,41.3,29.70,WSW,238,0.0,0.0,84,0.00,,SKC,0.00,VWS V14.01,2013-10-17 16:04:00,
2013-10-17 11:09:00,46.2,42.0,29.70,WSW,238,0.0,0.0,85,0.00,,SKC,0.00,VWS V14.01,2013-10-17 16:09:00,
2013-10-17 11:14:00,46.4,41.5,29.70,WSW,238,0.0,0.0,83,0.00,,SKC,0.00,VWS V14.01,2013-10-17 16:14:00,
2013-10-17 11:19:00,46.6,41.7,29.70,WSW,238,1.0,1.0,83,0.00,,SKC,0.00,VWS V14.01,2013-10-17 16:19:00,
2013-10-17 11:24:00,46.8,41.9,29.70,WSW,238,0.0,1.0,83,0.00,,SKC,0.00,VWS V14.01,2013-10-17 16:24:00,
2013-10-17 11:30:00,46.9,41.7,29.70,WSW,238,0.0,2.0,82,0.00,,SKC,0.00,VWS V14.01,2013-10-17 16:30:00,
2013-10-17 11:35:00,47.0,42.1,29.69,WSW,238,0.0,0.0,83,0.00,,SKC,0.00,VWS V14.01,2013-10-17 16:35:00,
2013-10-17 11:40:00,47.3,42.4,29.70,WSW,238,0.0,0.0,83,0.00,,SKC,0.00,VWS V14.01,2013-10-17 16:40:00,
2013-10-17 11:45:00,47.6,42.4,29.70,WSW,238,2.0,2.0,82,0.00,,SKC,0.00,VWS V14.01,2013-10-17 16:45:00,
2013-10-17 11:50:00,47.9,42.7,29.69,WSW,238,0.0,2.0,82,0.00,,SKC,0.00,VWS V14.01,2013-10-17 16:50:00,
2013-10-17 11:55:00,48.3,43.1,29.69,WSW,238,0.0,4.0,82,0.00,,SKC,0.00,VWS V14.01,2013-10-17 16:55:00,
2013-10-17 12:00:00,48.7,42.8,29.69,WSW,238,0.0,4.0,80,0.00,,SKC,0.00,VWS V14.01,2013-10-17 17:00:00,
2013-10-17 12:05:00,49.1,43.5,29.69,WSW,238,0.0,1.0,81,0.00,,SKC,0.00,VWS V14.01,2013-10-17 17:05:00,
2013-10-17 12:10:00,49.2,43.0,29.69,WSW,238,0.0,1.0,79,0.00,,SKC,0.00,VWS V14.01,2013-10-17 17:10:00,
2013-10-17 12:15:00,49.4,43.2,29.69,WSW,238,0.0,2.0,79,0.00,,SKC,0.00,VWS V14.01,2013-10-17 17:15:00,
2013-10-17 12:20:00,49.5,43.3,29.69,WSW,238,0.0,2.0,79,0.00,,SKC,0.00,VWS V14.01,2013-10-17 17:20:00,
2013-10-17 12:25:00,49.7,43.5,29.69,WSW,238,0.0,2.0,79,0.00,,SKC,0.00,VWS V14.01,2013-10-17 17:25:00,
2013-10-17 12:30:00,50.0,43.8,29.68,WSW,238,0.0,4.0,79,0.00,,SKC,0.00,VWS V14.01,2013-10-17 17:30:00,
2013-10-17 12:35:00,50.3,43.7,29.69,WSW,238,0.0,0.0,78,0.00,,SKC,0.00,VWS V14.01,2013-10-17 17:35:00,
2013-10-17 12:40:00,50.7,44.4,29.68,WSW,238,0.0,0.0,79,0.00,,SKC,0.00,VWS V14.01,2013-10-17 17:40:00,
2013-10-17 12:45:00,50.8,43.9,29.68,WSW,238,0.0,0.0,77,0.00,,SKC,0.00,VWS V14.01,2013-10-17 17:45:00,
2013-10-17 12:50:00,51.0,44.0,29.68,WSW,238,0.0,1.0,77,0.00,,SKC,0.00,VWS V14.01,2013-10-17 17:50:00,
2013-10-17 12:56:00,51.2,44.6,29.68,WSW,238,0.0,1.0,78,0.00,,SKC,0.00,VWS V14.01,2013-10-17 17:56:00,
2013-10-17 13:00:00,48.8,43.2,29.69,WSW,238,0.0,4.0,81,0.00,,SKC,0.00,VWS V14.01,2013-10-17 18:00:00,
2013-10-17 13:01:00,51.3,44.0,29.68,WSW,238,0.0,1.0,76,0.00,,SKC,0.00,VWS V14.01,2013-10-17 18:01:00,
2013-10-17 13:06:00,51.6,44.6,29.68,WSW,238,0.0,0.0,77,0.00,,SKC,0.00,VWS V14.01,2013-10-17 18:06:00,
2013-10-17 13:11:00,52.2,45.6,29.68,WSW,238,0.0,0.0,78,0.00,,SKC,0.00,VWS V14.01,2013-10-17 18:11:00,
2013-10-17 13:16:00,53.0,45.7,29.67,WSW,238,0.0,1.0,76,0.00,,SKC,0.00,VWS V14.01,2013-10-17 18:16:00,
2013-10-17 13:21:00,53.6,44.8,29.68,WSW,252,0.0,7.0,72,0.00,,SKC,0.00,VWS V14.01,2013-10-17 18:21:00,
2013-10-17 13:26:00,53.9,45.1,29.67,WSW,252,0.0,7.0,72,0.00,,SKC,0.00,VWS V14.01,2013-10-17 18:26:00,
2013-10-17 13:30:00,50.0,43.8,29.68,WSW,238,0.0,4.0,79,0.00,,SKC,0.00,VWS V14.01,2013-10-17 18:30:00,
2013-10-17 13:31:00,54.0,45.2,29.67,WSW,252,0.0,7.0,72,0.00,,SKC,0.00,VWS V14.01,2013-10-17 18:31:00,
2013-10-17 13:36:00,53.6,44.4,29.67,WSW,252,0.0,4.0,71,0.00,,SKC,0.00,VWS V14.01,2013-10-17 18:36:00,
2013-10-17 13:41:00,53.4,45.0,29.67,WSW,252,1.0,4.0,73,0.00,,SKC,0.00,VWS V14.01,2013-10-17 18:41:00,
2013-10-17 13:46:00,53.2,44.8,29.67,WSW,252,0.0,5.0,73,0.00,,SKC,0.00,VWS V14.01,2013-10-17 18:46:00,
2013-10-17 13:51:00,53.2,44.4,29.67,WSW,252,0.0,5.0,72,0.00,,SKC,0.00,VWS V14.01,2013-10-17 18:51:00,
2013-10-17 13:56:00,52.7,44.3,29.67,WSW,254,0.0,5.0,73,0.00,,SKC,0.00,VWS V14.01,2013-10-17 18:56:00,
2013-10-17 14:00:00,51.3,44.0,29.68,WSW,238,0.0,1.0,76,0.00,,SKC,0.00,VWS V14.01,2013-10-17 19:00:00,
2013-10-17 14:01:00,52.4,44.4,29.67,WSW,254,0.0,0.0,74,0.00,,SKC,0.00,VWS V14.01,2013-10-17 19:01:00,
2013-10-17 14:06:00,52.4,45.1,29.67,WSW,254,0.0,3.0,76,0.00,,SKC,0.00,VWS V14.01,2013-10-17 19:06:00,
2013-10-17 14:11:00,52.4,45.1,29.67,WSW,254,1.0,3.0,76,0.00,,SKC,0.00,VWS V14.01,2013-10-17 19:11:00,
2013-10-17 14:16:00,52.3,44.6,29.67,WSW,254,0.0,4.0,75,0.00,,SKC,0.00,VWS V14.01,2013-10-17 19:16:00,
2013-10-17 14:21:00,51.9,44.6,29.67,WSW,254,0.0,4.0,76,0.00,,SKC,0.00,VWS V14.01,2013-10-17 19:21:00,
2013-10-17 14:26:00,51.7,44.4,29.67,WSW,254,0.0,4.0,76,0.00,,SKC,0.00,VWS V14.01,2013-10-17 19:26:00,
2013-10-17 14:30:00,54.1,45.3,29.67,WSW,252,0.0,7.0,72,0.00,,SKC,0.00,VWS V14.01,2013-10-17 19:30:00,
2013-10-17 14:31:00,51.7,44.4,29.67,WSW,254,2.0,2.0,76,0.00,,SKC,0.00,VWS V14.01,2013-10-17 19:31:00,
2013-10-17 14:32:00,51.6,44.6,29.67,WSW,254,0.0,2.0,77,0.00,,SKC,0.00,VWS V14.01,2013-10-17 19:32:00,
2013-10-17 14:37:00,51.4,44.4,29.67,West,260,0.0,6.0,77,0.00,,SKC,0.00,VWS V14.01,2013-10-17 19:37:00,
2013-10-17 14:42:00,51.3,44.7,29.67,West,262,6.0,6.0,78,0.00,,SKC,0.00,VWS V14.01,2013-10-17 19:42:00,
2013-10-17 14:47:00,50.9,44.6,29.67,West,263,4.0,7.0,79,0.00,,SKC,0.00,VWS V14.01,2013-10-17 19:47:00,
2013-10-17 14:52:00,50.8,44.9,29.67,West,263,0.0,7.0,80,0.00,,SKC,0.00,VWS V14.01,2013-10-17 19:52:00,
2013-10-17 14:57:00,50.7,45.1,29.67,West,263,0.0,7.0,81,0.00,,SKC,0.00,VWS V14.01,2013-10-17 19:57:00,
2013-10-17 15:00:00,52.4,44.4,29.67,WSW,254,0.0,5.0,74,0.00,,SKC,0.00,VWS V14.01,2013-10-17 20:00:00,
2013-10-17 15:02:00,50.4,45.1,29.67,West,263,0.0,3.0,82,0.00,,SKC,0.00,VWS V14.01,2013-10-17 20:02:00,
2013-10-17 15:07:00,50.1,45.5,29.67,West,263,0.0,3.0,84,0.00,,SKC,0.00,VWS V14.01,2013-10-17 20:07:00,
2013-10-17 15:12:00,49.9,45.3,29.67,West,263,0.0,3.0,84,0.00,,SKC,0.00,VWS V14.01,2013-10-17 20:12:00,
2013-10-17 15:18:00,49.7,45.4,29.67,West,263,0.0,4.0,85,0.00,,SKC,0.00,VWS V14.01,2013-10-17 20:18:00,
2013-10-17 15:23:00,49.6,45.6,29.67,West,263,0.0,5.0,86,0.00,,SKC,0.00,VWS V14.01,2013-10-17 20:23:00,
2013-10-17 15:28:00,49.3,45.3,29.67,West,263,1.0,5.0,86,0.00,,SKC,0.00,VWS V14.01,2013-10-17 20:28:00,
2013-10-17 15:30:00,51.7,44.7,29.67,WSW,254,0.0,6.0,77,0.00,,SKC,0.00,VWS V14.01,2013-10-17 20:30:00,
2013-10-17 15:33:00,49.0,45.3,29.67,West,263,0.0,1.0,87,0.00,,SKC,0.00,VWS V14.01,2013-10-17 20:33:00,
2013-10-17 15:38:00,48.7,45.0,29.67,West,263,0.0,4.0,87,0.00,,SKC,0.00,VWS V14.01,2013-10-17 20:38:00,
2013-10-17 15:43:00,48.3,44.9,29.67,West,263,0.0,6.0,88,0.00,,SKC,0.00,VWS V14.01,2013-10-17 20:43:00,
2013-10-17 15:48:00,48.2,45.1,29.67,West,263,0.0,6.0,89,0.00,,SKC,0.00,VWS V14.01,2013-10-17 20:48:00,
2013-10-17 15:53:00,48.1,45.3,29.67,West,263,5.0,6.0,90,0.00,,SKC,0.00,VWS V14.01,2013-10-17 20:53:00,
2013-10-17 15:58:00,48.0,45.5,29.67,West,264,0.0,6.0,91,0.01,,SKC,0.01,VWS V14.01,2013-10-17 20:58:00,
2013-10-17 16:00:00,50.4,45.1,29.67,West,263,0.0,7.0,82,0.00,,SKC,0.00,VWS V14.01,2013-10-17 21:00:00,
2013-10-17 16:03:00,47.8,45.3,29.67,West,265,0.0,2.0,91,0.01,,SKC,0.01,VWS V14.01,2013-10-17 21:03:00,
2013-10-17 16:08:00,47.7,45.2,29.67,West,265,0.0,2.0,91,0.01,,SKC,0.01,VWS V14.01,2013-10-17 21:08:00,
2013-10-17 16:13:00,47.7,45.5,29.67,West,265,0.0,3.0,92,0.01,,SKC,0.01,VWS V14.01,2013-10-17 21:13:00,
2013-10-17 16:18:00,47.6,45.4,29.67,West,265,0.0,3.0,92,0.01,,SKC,0.01,VWS V14.01,2013-10-17 21:18:00,
2013-10-17 16:23:00,47.6,45.4,29.67,West,265,0.0,3.0,92,0.01,,SKC,0.01,VWS V14.01,2013-10-17 21:23:00,
2013-10-17 16:28:00,47.6,45.4,29.68,West,265,0.0,5.0,92,0.01,,SKC,0.01,VWS V14.01,2013-10-17 21:28:00,
2013-10-17 16:30:00,49.2,45.5,29.67,West,263,0.0,5.0,87,0.00,,SKC,0.00,VWS V14.01,2013-10-17 21:30:00,
2013-10-17 16:33:00,47.5,45.3,29.67,West,265,0.0,0.0,92,0.01,,SKC,0.01,VWS V14.01,2013-10-17 21:33:00,
2013-10-17 16:38:00,47.5,45.6,29.67,West,265,0.0,0.0,93,0.01,,SKC,0.01,VWS V14.01,2013-10-17 21:38:00,
2013-10-17 16:43:00,47.5,45.6,29.68,West,265,0.0,1.0,93,0.01,,SKC,0.01,VWS V14.01,2013-10-17 21:43:00,
2013-10-17 16:48:00,47.5,45.6,29.67,West,265,0.0,1.0,93,0.02,,SKC,0.02,VWS V14.01,2013-10-17 21:48:00,
2013-10-17 16:53:00,47.5,45.6,29.67,West,265,0.0,2.0,93,0.02,,SKC,0.02,VWS V14.01,2013-10-17 21:53:00,
2013-10-17 16:58:00,47.6,45.7,29.67,West,265,0.0,2.0,93,0.02,,SKC,0.02,VWS V14.01,2013-10-17 21:58:00,
2013-10-17 17:00:00,47.9,45.4,29.67,West,264,2.0,6.0,91,0.01,,SKC,0.01,VWS V14.01,2013-10-17 22:00:00,
2013-10-17 17:03:00,47.6,46.0,29.67,West,265,0.0,3.0,94,0.01,,SKC,0.02,VWS V14.01,2013-10-17 22:03:00,
2013-10-17 17:08:00,47.5,45.6,29.67,West,265,0.0,7.0,93,0.01,,SKC,0.02,VWS V14.01,2013-10-17 22:08:00,
2013-10-17 17:13:00,47.4,45.5,29.68,West,265,0.0,7.0,93,0.01,,SKC,0.02,VWS V14.01,2013-10-17 22:13:00,
2013-10-17 17:18:00,47.5,45.9,29.68,West,265,0.0,7.0,94,0.01,,SKC,0.02,VWS V14.01,2013-10-17 22:18:00,
2013-10-17 17:23:00,47.5,45.9,29.67,West,265,0.0,7.0,94,0.01,,SKC,0.02,VWS V14.01,2013-10-17 22:23:00,
2013-10-17 17:29:00,47.5,45.9,29.67,West,265,0.0,7.0,94,0.01,,SKC,0.02,VWS V14.01,2013-10-17 22:29:00,
2013-10-17 17:30:00,47.6,45.4,29.67,West,265,0.0,5.0,92,0.01,,SKC,0.01,VWS V14.01,2013-10-17 22:30:00,
2013-10-17 17:34:00,47.6,46.0,29.67,West,265,0.0,0.0,94,0.01,,SKC,0.02,VWS V14.01,2013-10-17 22:34:00,
2013-10-17 17:39:00,47.5,45.9,29.67,West,265,0.0,0.0,94,0.01,,SKC,0.02,VWS V14.01,2013-10-17 22:39:00,
2013-10-17 17:44:00,47.6,46.0,29.67,West,265,0.0,0.0,94,0.01,,SKC,0.02,VWS V14.01,2013-10-17 22:44:00,
2013-10-17 17:49:00,47.5,45.9,29.67,West,265,0.0,0.0,94,0.01,,SKC,0.02,VWS V14.01,2013-10-17 22:49:00,
2013-10-17 17:54:00,47.5,45.9,29.67,West,265,0.0,1.0,94,0.01,,SKC,0.02,VWS V14.01,2013-10-17 22:54:00,
2013-10-17 17:59:00,47.4,45.8,29.67,West,265,0.0,1.0,94,0.01,,SKC,0.02,VWS V14.01,2013-10-17 22:59:00,
2013-10-17 18:00:00,47.6,46.0,29.67,West,265,1.0,5.0,94,0.02,,SKC,0.02,VWS V14.01,2013-10-17 23:00:00,
2013-10-17 18:04:00,47.3,45.7,29.68,West,265,0.0,0.0,94,0.00,,SKC,0.02,VWS V14.01,2013-10-17 23:04:00,
2013-10-17 18:09:00,47.2,45.6,29.68,West,265,0.0,1.0,94,0.00,,SKC,0.02,VWS V14.01,2013-10-17 23:09:00,
2013-10-17 18:14:00,47.1,45.5,29.68,West,265,0.0,1.0,94,0.00,,SKC,0.02,VWS V14.01,2013-10-17 23:14:00,
2013-10-17 18:19:00,47.0,45.4,29.68,West,265,0.0,1.0,94,0.00,,SKC,0.02,VWS V14.01,2013-10-17 23:19:00,
2013-10-17 18:24:00,46.9,45.0,29.68,West,265,0.0,1.0,93,0.00,,SKC,0.02,VWS V14.01,2013-10-17 23:24:00,
2013-10-17 18:29:00,46.8,44.9,29.68,West,265,0.0,1.0,93,0.00,,SKC,0.02,VWS V14.01,2013-10-17 23:29:00,
2013-10-17 18:30:00,47.5,45.9,29.67,West,265,0.0,7.0,94,0.01,,SKC,0.02,VWS V14.01,2013-10-17 23:30:00,
2013-10-17 18:34:00,46.7,44.8,29.68,West,265,0.0,0.0,93,0.00,,SKC,0.02,VWS V14.01,2013-10-17 23:34:00,
2013-10-17 18:39:00,46.6,45.0,29.68,West,265,0.0,0.0,94,0.00,,SKC,0.02,VWS V14.01,2013-10-17 23:39:00,
2013-10-17 18:44:00,46.6,45.0,29.69,West,265,0.0,0.0,94,0.00,,SKC,0.02,VWS V14.01,2013-10-17 23:44:00,
2013-10-17 18:49:00,46.5,44.9,29.69,West,265,0.0,0.0,94,0.00,,SKC,0.02,VWS V14.01,2013-10-17 23:49:00,
2013-10-17 18:54:00,46.4,44.8,29.69,West,265,0.0,0.0,94,0.00,,SKC,0.02,VWS V14.01,2013-10-17 23:54:00,
2013-10-17 18:59:00,46.4,44.8,29.69,West,265,0.0,0.0,94,0.00,,SKC,0.02,VWS V14.01,2013-10-17 23:59:00,
2013-10-17 19:00:00,47.3,45.7,29.68,West,265,0.0,1.0,94,0.01,,SKC,0.02,VWS V14.01,2013-10-18 00:00:00,
2013-10-17 19:04:00,46.4,44.8,29.69,West,265,0.0,0.0,94,0.00,,SKC,0.02,VWS V14.01,2013-10-18 00:04:00,
2013-10-17 19:09:00,46.4,44.8,29.69,West,265,0.0,0.0,94,0.00,,SKC,0.02,VWS V14.01,2013-10-18 00:09:00,
2013-10-17 19:14:00,46.4,44.8,29.69,West,265,0.0,0.0,94,0.00,,SKC,0.02,VWS V14.01,2013-10-18 00:14:00,
2013-10-17 19:19:00,46.4,44.8,29.69,West,265,0.0,0.0,94,0.00,,SKC,0.02,VWS V14.01,2013-10-18 00:19:00,
2013-10-17 19:24:00,46.4,44.8,29.70,West,265,0.0,0.0,94,0.00,,SKC,0.02,VWS V14.01,2013-10-18 00:24:00,
2013-10-17 19:29:00,46.3,44.7,29.70,West,265,0.0,0.0,94,0.00,,SKC,0.02,VWS V14.01,2013-10-18 00:29:00,
2013-10-17 19:30:00,46.7,44.8,29.68,West,265,0.0,1.0,93,0.00,,SKC,0.02,VWS V14.01,2013-10-18 00:30:00,
2013-10-17 19:34:00,46.4,44.8,29.70,West,265,0.0,0.0,94,0.00,,SKC,0.02,VWS V14.01,2013-10-18 00:34:00,
2013-10-17 19:39:00,46.3,44.7,29.70,West,265,0.0,0.0,94,0.00,,SKC,0.02,VWS V14.01,2013-10-18 00:39:00,
2013-10-17 19:44:00,46.3,44.7,29.70,West,265,0.0,0.0,94,0.00,,SKC,0.02,VWS V14.01,2013-10-18 00:44:00,
2013-10-17 19:50:00,46.3,44.7,29.70,West,265,0.0,0.0,94,0.00,,SKC,0.02,VWS V14.01,2013-10-18 00:50:00,
2013-10-17 19:55:00,46.3,45.0,29.70,West,265,0.0,0.0,95,0.00,,SKC,0.02,VWS V14.01,2013-10-18 00:55:00,
2013-10-17 20:00:00,46.3,45.0,29.70,West,265,0.0,1.0,95,0.00,,SKC,0.02,VWS V14.01,2013-10-18 01:00:00,
2013-10-17 20:05:00,46.3,45.0,29.70,West,265,0.0,0.0,95,0.00,,SKC,0.02,VWS V14.01,2013-10-18 01:05:00,
2013-10-17 20:10:00,46.3,45.0,29.70,West,265,0.0,0.0,95,0.00,,SKC,0.02,VWS V14.01,2013-10-18 01:10:00,
2013-10-17 20:15:00,46.2,44.8,29.70,West,265,0.0,0.0,95,0.00,,SKC,0.02,VWS V14.01,2013-10-18 01:15:00,
2013-10-17 20:20:00,46.2,44.8,29.70,West,265,0.0,0.0,95,0.00,,SKC,0.02,VWS V14.01,2013-10-18 01:20:00,
2013-10-17 20:25:00,46.1,44.8,29.70,West,265,0.0,0.0,95,0.00,,SKC,0.02,VWS V14.01,2013-10-18 01:25:00,
2013-10-17 20:30:00,46.1,44.8,29.70,West,265,0.0,0.0,95,0.00,,SKC,0.02,VWS V14.01,2013-10-18 01:30:00,
2013-10-17 20:35:00,46.1,44.8,29.70,West,265,0.0,1.0,95,0.00,,SKC,0.02,VWS V14.01,2013-10-18 01:35:00,
2013-10-17 20:40:00,46.1,44.8,29.70,West,265,2.0,3.0,95,0.00,,SKC,0.02,VWS V14.01,2013-10-18 01:40:00,
2013-10-17 20:45:00,46.1,44.8,29.70,West,265,0.0,4.0,95,0.00,,SKC,0.02,VWS V14.01,2013-10-18 01:45:00,
2013-10-17 20:50:00,46.0,44.7,29.70,West,265,0.0,5.0,95,0.00,,SKC,0.02,VWS V14.01,2013-10-18 01:50:00,
2013-10-17 20:55:00,45.8,44.5,29.71,West,265,0.0,6.0,95,0.01,,SKC,0.03,VWS V14.01,2013-10-18 01:55:00,
2013-10-17 21:00:00,45.6,44.2,29.71,West,265,0.0,6.0,95,0.01,,SKC,0.03,VWS V14.01,2013-10-18 02:00:00,
2013-10-17 21:05:00,45.4,43.8,29.71,West,265,2.0,4.0,94,0.01,,SKC,0.03,VWS V14.01,2013-10-18 02:05:00,
2013-10-17 21:10:00,45.2,43.9,29.71,West,265,0.0,5.0,95,0.01,,SKC,0.03,VWS V14.01,2013-10-18 02:10:00,
2013-10-17 21:15:00,45.0,43.7,29.71,West,266,1.0,5.0,95,0.01,,SKC,0.03,VWS V14.01,2013-10-18 02:15:00,
2013-10-17 21:20:00,44.9,43.3,29.71,West,266,2.0,6.0,94,0.01,,SKC,0.03,VWS V14.01,2013-10-18 02:20:00,
2013-10-17 21:25:00,44.8,43.2,29.71,West,273,6.0,7.0,94,0.02,,SKC,0.04,VWS V14.01,2013-10-18 02:25:00,
2013-10-17 21:30:00,44.6,43.3,29.71,West,277,1.0,7.0,95,0.02,,SKC,0.04,VWS V14.01,2013-10-18 02:30:00,
2013-10-17 21:35:00,44.4,43.1,29.71,WNW,282,2.0,7.0,95,0.02,,SKC,0.04,VWS V14.01,2013-10-18 02:35:00,
2013-10-17 21:40:00,44.3,42.7,29.71,WNW,284,4.0,7.0,94,0.02,,SKC,0.04,VWS V14.01,2013-10-18 02:40:00,
2013-10-17 21:45:00,44.2,42.9,29.72,WNW,284,6.0,7.0,95,0.03,,SKC,0.05,VWS V14.01,2013-10-18 02:45:00,
2013-10-17 21:51:00,44.1,42.8,29.72,WNW,288,5.0,7.0,95,0.03,,SKC,0.05,VWS V14.01,2013-10-18 02:51:00,
2013-10-17 21:56:00,43.9,42.6,29.72,WNW,288,5.0,7.0,95,0.03,,SKC,0.05,VWS V14.01,2013-10-18 02:56:00,
2013-10-17 22:00:00,45.5,44.2,29.71,West,265,1.0,6.0,95,0.01,,SKC,0.03,VWS V14.01,2013-10-18 03:00:00,
2013-10-17 22:01:00,43.8,42.5,29.72,WNW,289,4.0,7.0,95,0.03,,SKC,0.05,VWS V14.01,2013-10-18 03:01:00,
2013-10-17 22:06:00,43.7,42.4,29.72,WNW,296,0.0,6.0,95,0.02,,SKC,0.05,VWS V14.01,2013-10-18 03:06:00,
2013-10-17 22:11:00,43.6,42.3,29.72,WNW,296,2.0,6.0,95,0.02,,SKC,0.05,VWS V14.01,2013-10-18 03:11:00,
2013-10-17 22:16:00,43.4,42.1,29.72,WNW,296,5.0,6.0,95,0.02,,SKC,0.05,VWS V14.01,2013-10-18 03:16:00,
2013-10-17 22:21:00,43.3,42.0,29.72,WNW,296,1.0,6.0,95,0.02,,SKC,0.05,VWS V14.01,2013-10-18 03:21:00,
2013-10-17 22:26:00,43.2,41.9,29.72,WNW,296,5.0,6.0,95,0.02,,SKC,0.05,VWS V14.01,2013-10-18 03:26:00,
2013-10-17 22:30:00,44.5,43.2,29.71,West,277,1.0,7.0,95,0.02,,SKC,0.04,VWS V14.01,2013-10-18 03:30:00,
2013-10-17 22:31:00,43.1,41.8,29.72,WNW,297,5.0,6.0,95,0.02,,SKC,0.05,VWS V14.01,2013-10-18 03:31:00,
2013-10-17 22:36:00,42.9,41.6,29.72,WNW,298,2.0,6.0,95,0.01,,SKC,0.05,VWS V14.01,2013-10-18 03:36:00,
2013-10-17 22:41:00,42.7,41.4,29.72,WNW,298,4.0,6.0,95,0.01,,SKC,0.05,VWS V14.01,2013-10-18 03:41:00,
2013-10-17 22:46:00,42.6,41.3,29.73,WNW,298,8.0,8.0,95,0.01,,SKC,0.05,VWS V14.01,2013-10-18 03:46:00,
2013-10-17 22:51:00,42.4,40.8,29.73,WNW,299,5.0,8.0,94,0.02,,SKC,0.06,VWS V14.01,2013-10-18 03:51:00,
2013-10-17 22:56:00,42.2,40.6,29.72,NNW,334,4.0,9.0,94,0.02,,SKC,0.06,VWS V14.01,2013-10-18 03:56:00,
2013-10-17 23:00:00,43.8,42.5,29.72,WNW,289,2.0,7.0,95,0.03,,SKC,0.05,VWS V14.01,2013-10-18 04:00:00,
2013-10-17 23:01:00,41.9,40.6,29.73,NNW,335,4.0,9.0,95,0.02,,SKC,0.06,VWS V14.01,2013-10-18 04:01:00,
2013-10-17 23:04:00,41.8,40.2,29.73,NNW,334,2.0,8.0,94,0.01,,SKC,0.06,VWS V14.01,2013-10-18 04:04:00,
2013-10-17 23:07:00,41.7,40.1,29.72,NNW,331,7.0,8.0,94,0.01,,SKC,0.06,VWS V14.01,2013-10-18 04:07:00,
2013-10-17 23:09:00,41.6,40.0,29.73,NNW,331,5.0,8.0,94,0.01,,SKC,0.06,VWS V14.01,2013-10-18 04:09:00,
2013-10-17 23:11:00,41.5,39.9,29.73,NNW,331,3.0,8.0,94,0.01,,SKC,0.06,VWS V14.01,2013-10-18 04:11:00,
2013-10-17 23:16:00,41.4,39.8,29.73,NNW,331,2.0,8.0,94,0.01,,SKC,0.06,VWS V14.01,2013-10-18 04:16:00,
2013-10-17 23:21:00,41.3,39.7,29.73,NNW,331,5.0,8.0,94,0.01,,SKC,0.06,VWS V14.01,2013-10-18 04:21:00,
2013-10-17 23:26:00,41.2,39.6,29.73,NNW,330,4.0,8.0,94,0.01,,SKC,0.06,VWS V14.01,2013-10-18 04:26:00,
2013-10-17 23:30:00,43.1,41.8,29.72,WNW,297,5.0,6.0,95,0.02,,SKC,0.05,VWS V14.01,2013-10-18 04:30:00,
2013-10-17 23:31:00,41.1,39.5,29.73,NNW,329,2.0,6.0,94,0.01,,SKC,0.06,VWS V14.01,2013-10-18 04:31:00,
2013-10-17 23:37:00,41.0,39.4,29.73,NNW,329,5.0,7.0,94,0.01,,SKC,0.06,VWS V14.01,2013-10-18 04:37:00,
2013-10-17 23:42:00,41.0,39.4,29.73,NNW,329,6.0,7.0,94,0.01,,SKC,0.06,VWS V14.01,2013-10-18 04:42:00,
2013-10-17 23:47:00,40.9,39.3,29.73,NNW,339,5.0,9.0,94,0.01,,SKC,0.06,VWS V14.01,2013-10-18 04:47:00,
2013-10-17 23:52:00,40.8,39.2,29.73,NNW,339,0.0,9.0,94,0.01,,SKC,0.06,VWS V14.01,2013-10-18 04:52:00,
2013-10-17 23:57:00,40.7,39.1,29.73,NNW,338,4.0,9.0,94,0.02,,SKC,0.07,VWS V14.01,2013-10-18 04:57:00,